Location: *
(34.0486°S, 61.7880°E)
Time: 18:07:34
(UTC+00:00)

MOS 1 Rocket - Pass Details

Date: 01 April 2020
Orbit: 614 x 830 km, 97.4° (Epoch: 27 May)

Event Time Altitude Azimuth Distance (km) Brightness Sun altitude
Exits shadow 14:43:15 - 43° (NE) 2,769 6.0 -12.4°
Reaches altitude 10° 14:44:18 10° 47° (NE) 2,396 5.6 -12.6°
Maximum altitude 14:48:57 31° 108° (ESE) 1,354 4.3 -13.6°
Drops below altitude 10° 14:53:27 10° 169° (S) 2,320 5.9 -14.5°
Sets 14:55:55 0° 179° (S) 3,218 6.8 -15.0°
